Location: Linz
(48.3300°N, 14.3000°E)
Time: 18:51:13
(UTC+01:00)

ISS - Pass Details

Date: 16 November 2017
Orbit: 402 x 407 km, 51.6° (Epoch: 20 November)

Event Time Altitude Azimuth Distance (km) Brightness Sun altitude
Exits shadow 04:05:35 11° 107° (ESE) 1,420 -0.3 -30.7°
Drops below altitude 10° 04:05:41 10° 107° (ESE) 1,457 -0.3 -30.7°
Sets 04:07:45 0° 109° (ESE) 2,311 1.0 -30.4°
